Regional Weather Roundup
Issued by NWS Little Rock, AR

Home | Current Version | Previous Version | Text Only | Print | Product List | Glossary On
Versions: 1 2 3 4 5 6 7 8 9 10 11 12 13 14 15 16 17 18 19 20 21 22 23 24 25 26 27 28 29 30 31 32 33 34 35 36 37 38 39 40 41 42 43 44 45 46 47 48 49 50
000
ASUS44 KLZK 291205
RWRLZK

WEATHER ROUNDUP FOR ARKANSAS
NATIONAL WEATHER SERVICE LITTLE ROCK AR
700 AM CDT TUE JUL 29 2014

NOTE: "FAIR" INDICATES FEW OR NO CLOUDS BELOW 12,000 FEET WITH NO
SIGNIFICANT WEATHER AND/OR OBSTRUCTIONS TO VISIBILITY.

ARZ001-003-010-029-291300-
NORTHWEST ARKANSAS

CITY           SKY/WX    TMP DP  RH WIND       PRES   REMARKS
FAYETTEVILLE   CLEAR     56  56 100 CALM      30.17S
6HR MIN TEMP:  56; 6HR MAX TEMP:  61;

FORT SMITH     CLEAR     66  61  84 CALM      30.14R
6HR MIN TEMP:  65; 6HR MAX TEMP:  74;

HARRISON       CLEAR     59  58  96 CALM      30.18S
6HR MIN TEMP:  57; 6HR MAX TEMP:  64;

BENTONVILLE    CLEAR     61  55  82 CALM      30.18S
6HR MIN TEMP:  61; 6HR MAX TEMP:  66;

ROGERS         CLEAR     64  57  78 E5        30.19R
6HR MIN TEMP:  60; 6HR MAX TEMP:  66;

SILOAM SPGS    CLEAR     61  52  72 CALM      30.18S
6HR MIN TEMP:  59; 6HR MAX TEMP:  64;

HIGHFILL       CLEAR     61  58  90 CALM      30.17S
6HR MIN TEMP:  59; 6HR MAX TEMP:  65;

SPRINGDALE     CLEAR     63  59  88 E5        30.19R
$$

ARZ004-005-016-291300-
NORTH CENTRAL ARKANSAS

CITY           SKY/WX    TMP DP  RH WIND       PRES   REMARKS
BATESVILLE     CLEAR     64  59  82 CALM      30.15R
6HR MIN TEMP:  63; 6HR MAX TEMP:  72;

FLIPPIN        CLEAR     61  55  82 CALM      30.17R
6HR MIN TEMP:  61; 6HR MAX TEMP:  70;

MTN HOME       CLEAR     58  57  97 CALM      30.16R
6HR MIN TEMP:  57; 6HR MAX TEMP:  69;

$$

ARZ040-041-291300-
WEST CENTRAL ARKANSAS

CITY           SKY/WX    TMP DP  RH WIND       PRES   REMARKS
MENA           CLEAR     63  61  94 CALM      30.15S
MOUNT IDA      PTCLDY    62  60  93 CALM      30.12R
6HR MIN TEMP:  62; 6HR MAX TEMP:  66;

$$

ARZ009-017-025-026-028-291300-
NORTHEAST ARKANSAS

CITY           SKY/WX    TMP DP  RH WIND       PRES   REMARKS
CORNING        FAIR      61  57  88 N8        30.14S
JONESBORO      CLEAR     64  57  78 N3        30.13R
6HR MIN TEMP:  63; 6HR MAX TEMP:  71;

NEWPORT        CLEAR     65  62  90 NW3       30.15R
6HR MIN TEMP:  63; 6HR MAX TEMP:  72;

WALNUT RIDGE   CLEAR     63  55  77 N6        30.13R
6HR MIN TEMP:  61; 6HR MAX TEMP:  72;

BLYTHEVILLE    CLEAR     62  59  90 N6        30.12R
6HR MIN TEMP:  60; 6HR MAX TEMP:  70;

$$

ARZ022-023-033-042-044-291300-
CENTRAL ARKANSAS

CITY           SKY/WX    TMP DP  RH WIND       PRES   REMARKS
LITTLE ROCK    MOCLDY    69  62  78 N3        30.13R
6HR MIN TEMP:  68; 6HR MAX TEMP:  73;

N LITTLE ROCK    N/A     67  63  86 NE8       30.13R
6HR MIN TEMP:  66; 6HR MAX TEMP:  74;

JACKSONVILLE   CLEAR     68  62  79 NE3       30.13R
6HR MIN TEMP:  67; 6HR MAX TEMP:  71;

SEARCY         CLEAR     67  62  84 N7        30.14R
6HR MIN TEMP:  66; 6HR MAX TEMP:  72;

HOT SPRINGS    PTCLDY    68  62  81 CALM      30.14R
6HR MIN TEMP:  67; 6HR MAX TEMP:  74;

RUSSELLVILLE   CLEAR     63  61  93 CALM      30.13S
6HR MIN TEMP:  63; 6HR MAX TEMP:  71;

CLINTON        FAIR      63  63 100 CALM      30.16S
$$

ARZ036-291300-
EAST ARKANSAS

CITY           SKY/WX    TMP DP  RH WIND       PRES   REMARKS
WEST MEMPHIS   CLEAR     66  63  90 N7        30.10R
6HR MIN TEMP:  65; 6HR MAX TEMP:  73;

$$

ARZ050-053-066-070-073-291300-
SOUTHWEST ARKANSAS

CITY           SKY/WX    TMP DP  RH WIND       PRES   REMARKS
ARKADELPHIA    FAIR      69  65  87 NE5       30.12R
6HR MIN TEMP:  66; 6HR MAX TEMP:  71;

CAMDEN         CLEAR     66  63  88 CALM      30.10R
TEXARKANA      CLEAR     66  64  93 CALM      30.12R
6HR MIN TEMP:  66; 6HR MAX TEMP:  73;

EL DORADO      CLEAR     67  65  93 NW5       30.11R
6HR MIN TEMP:  65; 6HR MAX TEMP:  69;

DE QUEEN       CLEAR     65  63  93 CALM      30.10R
6HR MIN TEMP:  65; 6HR MAX TEMP:  69;

$$

ARZ056-057-069-291300-
SOUTHEAST ARKANSAS

CITY           SKY/WX    TMP DP  RH WIND       PRES   REMARKS
PINE BLUFF     CLEAR     68  64  87 N7        30.11R
6HR MIN TEMP:  67; 6HR MAX TEMP:  70;

STUTTGART      PTCLDY    66  63  88 N7        30.12R
6HR MIN TEMP:  66; 6HR MAX TEMP:  72;

MONTICELLO     CLEAR     69  65  86 NW3       30.09R
6HR MIN TEMP:  66; 6HR MAX TEMP:  69; 6HR PCP: TRACE;


$$




USA.gov is the U.S. government's official web portal to all federal, state and local government web resources and services.